Simultaneous Nadir Overpasses (SNOs) Predictions

Prediction of SNOs between GOES-15 and LANDSAT-8 Satellite Orbit:

Table of predicted SNOs for the next 14.0 days since TLE Epoch: 10/16/2023
Index Date Time (GOES-15) GOES-15 Lat,Lon LANDSAT-8 Lat,Lon Distance(km) Time Diff (sec)
1 10/17/2023 16:51:49 0.33, 79.22 0.41, 79.77 61.87 80
2 10/18/2023 05:15:47 -0.33, 78.56 0.52, 74.58 453.08 80
3 10/20/2023 05:01:01 -0.32, 76.43 -0.51, 77.46 115.88 80
4 10/20/2023 17:25:07 0.32, 75.98 -0.46, 72.24 424.94 80
5 10/22/2023 17:10:21 0.31, 73.86 0.60, 75.11 143.47 80
6 10/23/2023 05:34:18 -0.31, 73.21 0.37, 69.93 371.97 80
7 10/25/2023 05:19:31 -0.31, 71.08 -0.66, 72.81 197.49 80
8 10/25/2023 17:43:36 0.30, 70.62 -0.35, 67.61 342.33 80
9 10/27/2023 17:28:49 0.30, 68.49 0.73, 70.48 226.87 80
10 10/28/2023 05:52:45 -0.30, 67.84 0.23, 65.30 288.97 80
